This is the latest recevied weather packets stored in our database for station/object WA4OPQ-1. If no packets are shown the sender has not sent any weather packets the latest 10 day(s).
| Time | Temp. | Humidity | Pressure | Rain* | Wind** | Luminosity | Snow |
|---|---|---|---|---|---|---|---|
| 1787967733 | 22.22° C | 91% | 1015.2 hPa | 0 mm | 0 m/s | 0 W/m² | - |
| 1787967246 | 21.67° C | 90% | 1015.1 hPa | 0 mm | 0 m/s | 0 W/m² | - |
| 1787966713 | 21.67° C | 92% | 1015.1 hPa | 0 mm | 0 m/s | 0 W/m² | - |
| 1787966113 | 22.22° C | 92% | 1014.8 hPa | 0 mm | 0 m/s | 0 W/m² | - |
| 1787965533 | 22.22° C | 92% | 1015 hPa | 0 mm | 0 m/s | 0 W/m² | - |
| 1787964978 | 22.22° C | 90% | 1014.7 hPa | 0 mm | 0 m/s | 0 W/m² | - |
| 1787964403 | 22.78° C | 90% | 1014.7 hPa | 0 mm | 0 m/s | 0 W/m² | - |
| 1787963893 | 22.78° C | 89% | 1014.4 hPa | 0 mm | 0 m/s | 0 W/m² | - |
| 1787963298 | 23.33° C | 89% | 1014.3 hPa | 0 mm | 0 m/s | 0 W/m² | - |
| 1787962783 | 23.33° C | 90% | 1014.3 hPa | 0 mm | 0 m/s | 1 W/m² | - |
| 1787962303 | 23.89° C | 88% | 1014.2 hPa | 0 mm | 0 m/s | 4 W/m² | - |
| 1787961823 | 24.44° C | 86% | 1014.5 hPa | 0 mm | 0 m/s | 8 W/m² | - |
| 1787961326 | 24.44° C | 82% | 1014.4 hPa | 0 mm | 0 m/s | 10 W/m² | - |
| 1787960833 | 25° C | 82% | 1014.2 hPa | 0 mm | 0 m/s | 13 W/m² | - |
| 1787960343 | 25° C | 79% | 1014.1 hPa | 0 mm | 0 m/s | 16 W/m² | - |
| 1787959773 | 25.56° C | 76% | 1014.1 hPa | 0 mm | 0 m/s | 19 W/m² | - |
| 1787959243 | 25.56° C | 76% | 1014.1 hPa | 0 mm | 0 m/s | 23 W/m² | - |
| 1787958746 | 25.56° C | 74% | 1013.9 hPa | 0 mm | 0 m/s | 25 W/m² | - |
| 1787958253 | 25.56° C | 74% | 1014.3 hPa | 0 mm | 0 m/s | 28 W/m² | - |
| 1787957678 | 25.56° C | 73% | 1013.9 hPa | 0 mm | 0 m/s | 29 W/m² | - |
| 1787957088 | 26.11° C | 73% | 1013.8 hPa | 0 mm | 0 m/s | 32 W/m² | - |
| 1787956548 | 26.11° C | 72% | 1013.8 hPa | 0 mm | 0 m/s | 35 W/m² | - |
| 1787956056 | 26.67° C | 69% | 1014 hPa | 0 mm | 0 m/s | 37 W/m² | - |
| 1787955504 | 26.67° C | 69% | 1013.7 hPa | 0 mm | 0 m/s | 40 W/m² | - |
| 1787954958 | 26.67° C | 69% | 1013.9 hPa | 0 mm | 0 m/s | 42 W/m² | - |
* Rain latest hour (hover to see other rain measurements)
** Current wind speed in m/s (hover to see current wind gust speed)